Marshall, TX

6:59 PM CST on December 05, 2019 (GMT -0600)
Harrison County

Weather History for KASL - October, 2019

Change the Weather History Date:

Saturday, October 19, 2019

  Actual Average (KGGG) Record (KGGG)
Temperature  
Mean Temperature 64 °F -  
Max Temperature 78 °F 75 °F 95 °F (1947)
Min Temperature 50 °F 53 °F 30 °F (1967)
Degree Days  
Heating Degree Days 2    
Growing Degree Days 14 (Base 50)    
Moisture  
Dew Point 57 °F    
Average Humidity 83    
Maximum Humidity 94    
Minimum Humidity 64    
Precipitation  
Precipitation 0.00 in - - ()
Sea Level Pressure  
Sea Level Pressure 29.79 in    
Wind  
Wind Speed 1 mph (SW)    
Max Wind Speed 8 mph    
Max Gust Speed -    
Visibility 8 miles    
Events      
Averages and records for this station are not official NWS values.
T = Trace of Precipitation, MM = Missing Value Source: NWS Daily Summary

Daily Weather History Graph

Daily Weather History Graph

Search for Another Location

Airport or City:

Astronomy

Oct. 19, 2019 Rise Set
Actual Time 7:23 AM CDT 6:39 PM CDT
Civil Twilight 6:59 AM CDT 7:04 PM CDT
Nautical Twilight 6:30 AM CDT 7:33 PM CDT
Astronomical Twilight 6:01 AM CDT 8:01 PM CDT
Moon 11:03 PM CDT (10/19) 12:43 PM CDT (10/19)
Length of Visible Light 12h 05m
Length of Day
11h 16m
Waning Gibbous, 69% of the Moon is Illuminated
Oct 19
Waning Gibbous
Oct 21
Last Quarter
Oct 27
New
Nov 4
First Quarter
Nov 12
Full

Hourly Weather History & Observations

Time (CDT) Temp. Dew Point Humidity Pressure Visibility Wind Dir Wind Speed Gust Speed Precip Events Conditions
12:15 AM 54.9 °F 47.8 °F 77% 29.81 in 10.0 mi Calm Calm - N/A   Clear
12:35 AM 53.1 °F 48.9 °F 86% 29.82 in 10.0 mi Calm Calm - N/A   Clear
12:55 AM 52.7 °F 49.5 °F 89% 29.81 in 10.0 mi Calm Calm - N/A   Clear
1:15 AM 52.7 °F 50.0 °F 91% 29.80 in 10.0 mi Calm Calm - N/A   Clear
1:35 AM 52.3 °F 49.6 °F 91% 29.79 in 10.0 mi Calm Calm - N/A   Clear
1:55 AM 52.7 °F 49.1 °F 88% 29.80 in 10.0 mi Calm Calm - N/A   Clear
2:15 AM 52.5 °F 49.3 °F 89% 29.80 in 10.0 mi Calm Calm - N/A   Clear
2:35 AM 52.0 °F 48.7 °F 89% 29.80 in 10.0 mi Calm Calm - N/A   Clear
2:55 AM 50.5 °F 47.7 °F 90% 29.80 in 10.0 mi Calm Calm - N/A   Clear
3:15 AM 50.5 °F 47.5 °F 89% 29.80 in 10.0 mi Calm Calm - N/A   Clear
3:35 AM 50.0 °F 47.3 °F 90% 29.80 in 10.0 mi Calm Calm - N/A   Clear
3:55 AM 50.0 °F 47.7 °F 92% 29.80 in 10.0 mi Calm Calm - N/A   Clear
4:15 AM 50.0 °F 47.8 °F 92% 29.80 in 10.0 mi Calm Calm - N/A   Clear
4:35 AM 50.0 °F 47.8 °F 92% 29.79 in 10.0 mi Calm Calm - N/A   Clear
4:55 AM 50.0 °F 48.2 °F 94% 29.81 in 10.0 mi Calm Calm - N/A   Clear
5:15 AM 50.0 °F 48.2 °F 94% 29.81 in 10.0 mi Calm Calm - N/A   Clear
5:35 AM 50.0 °F 48.2 °F 94% 29.80 in 10.0 mi Calm Calm - N/A   Clear
5:55 AM 50.0 °F 48.2 °F 94% 29.80 in 10.0 mi Calm Calm - N/A   Clear
6:15 AM 50.0 °F 48.2 °F 94% 29.81 in 10.0 mi Calm Calm - N/A   Clear
6:35 AM 50.0 °F 48.2 °F 94% 29.81 in 10.0 mi Calm Calm - N/A   Clear
6:55 AM 50.0 °F 48.2 °F 94% 29.80 in 10.0 mi Calm Calm - N/A   Clear
7:15 AM 50.0 °F 48.2 °F 94% 29.80 in 10.0 mi Calm Calm - N/A   Clear
7:35 AM 50.0 °F 48.4 °F 94% 29.79 in 10.0 mi Calm Calm - N/A   Clear
7:55 AM 50.0 °F 48.4 °F 94% 29.80 in 10.0 mi Calm Calm - N/A   Clear
8:15 AM 51.1 °F 49.1 °F 93% 29.81 in 10.0 mi Calm Calm - N/A   Scattered Clouds
8:35 AM 52.7 °F 49.3 °F 88% 29.82 in 10.0 mi Calm Calm - N/A   Mostly Cloudy
8:55 AM 54.9 °F 50.5 °F 85% 29.81 in 10.0 mi South 4.6 mph - N/A   Scattered Clouds
9:15 AM 57.4 °F 52.2 °F 83% 29.82 in 10.0 mi South 4.6 mph - N/A   Clear
9:35 AM 59.9 °F 52.9 °F 78% 29.83 in 10.0 mi SSW 3.5 mph - N/A   Clear
9:55 AM 63.0 °F 54.1 °F 73% 29.83 in 10.0 mi South 5.8 mph - N/A   Scattered Clouds
10:15 AM 64.9 °F 55.4 °F 71% 29.83 in 10.0 mi South 6.9 mph - N/A   Mostly Cloudy
10:35 AM 66.9 °F 57.6 °F 72% 29.83 in 10.0 mi South 8.1 mph - N/A   Mostly Cloudy
10:55 AM 70.0 °F 60.3 °F 71% 29.82 in 10.0 mi SSW 8.1 mph - N/A   Clear
11:15 AM 70.0 °F 59.4 °F 69% 29.82 in 10.0 mi SSW 5.8 mph - N/A   Clear
11:35 AM 71.8 °F 60.1 °F 67% 29.81 in 10.0 mi SSE 3.5 mph - N/A   Scattered Clouds
11:55 AM 72.7 °F 60.3 °F 65% 29.80 in 10.0 mi SSW 4.6 mph - N/A   Overcast
12:15 PM 75.2 °F 62.4 °F 64% 29.80 in 10.0 mi SW 5.8 mph - N/A   Overcast
12:35 PM 75.2 °F 62.1 °F 64% 29.79 in 10.0 mi SW 4.6 mph - N/A   Overcast
12:55 PM 75.2 °F 63.1 °F 66% 29.79 in 10.0 mi WSW 6.9 mph - N/A   Overcast
1:15 PM 75.4 °F 63.9 °F 67% 29.78 in 10.0 mi WSW 4.6 mph - N/A   Overcast
1:35 PM 77.0 °F 64.6 °F 65% 29.77 in 10.0 mi SW 3.5 mph - N/A   Overcast
1:55 PM 76.3 °F 64.8 °F 67% 29.76 in 10.0 mi SW 5.8 mph - N/A   Overcast
2:15 PM 77.5 °F 65.1 °F 65% 29.75 in 10.0 mi WSW 4.6 mph - N/A   Overcast
2:35 PM 77.5 °F 65.5 °F 66% 29.75 in 10.0 mi South 6.9 mph - N/A   Overcast
2:55 PM 77.0 °F 66.0 °F 69% 29.74 in 10.0 mi SSW 5.8 mph - N/A   Overcast
3:15 PM 76.3 °F 66.7 °F 72% 29.74 in 10.0 mi WNW 4.6 mph - N/A   Overcast
3:35 PM 76.1 °F 66.4 °F 72% 29.74 in 10.0 mi West 3.5 mph - N/A   Overcast
3:55 PM 76.3 °F 65.8 °F 70% 29.75 in 10.0 mi West 4.6 mph - N/A   Overcast
4:15 PM 76.3 °F 66.2 °F 71% 29.75 in 10.0 mi WNW 3.5 mph - N/A   Overcast
4:35 PM 76.5 °F 66.4 °F 71% 29.74 in 10.0 mi NW 4.6 mph - N/A   Mostly Cloudy
4:55 PM 77.4 °F 65.5 °F 67% 29.74 in 10.0 mi WSW 6.9 mph - N/A   Scattered Clouds
5:15 PM 77.2 °F 65.7 °F 67% 29.74 in 10.0 mi WSW 3.5 mph - N/A   Clear
5:35 PM 76.3 °F 64.9 °F 68% 29.75 in 10.0 mi SW 4.6 mph - N/A   Clear
5:55 PM 75.2 °F 64.9 °F 70% 29.75 in 10.0 mi SSW 3.5 mph - N/A   Clear
6:15 PM 75.2 °F 66.4 °F 74% 29.75 in 10.0 mi Calm Calm - N/A   Clear
6:35 PM 72.5 °F 66.9 °F 83% 29.75 in 10.0 mi Calm Calm - N/A   Clear
6:55 PM 70.0 °F 66.6 °F 89% 29.75 in 10.0 mi Calm Calm - N/A   Clear
7:15 PM 67.5 °F 64.8 °F 91% 29.75 in 4.0 mi Calm Calm - N/A   Clear
7:35 PM 65.8 °F 63.5 °F 92% 29.76 in 2.5 mi Calm Calm - N/A   Clear
7:55 PM 64.9 °F 62.8 °F 93% 29.76 in 1.5 mi North 3.5 mph - N/A   Unknown
8:15 PM 64.9 °F 63.0 °F 93% 29.77 in 3.0 mi Calm Calm - N/A   Clear
8:35 PM 64.9 °F 63.0 °F 93% 29.77 in 1.2 mi Calm Calm - N/A   Unknown
8:55 PM 64.9 °F 63.0 °F 93% 29.78 in 2.5 mi Calm Calm - N/A   Clear
9:15 PM 64.9 °F 63.0 °F 93% 29.78 in 0.5 mi Calm Calm - N/A   Unknown
9:35 PM 64.9 °F 63.0 °F 93% 29.78 in 1.2 mi Calm Calm - N/A   Unknown
9:55 PM 64.9 °F 63.1 °F 94% 29.78 in 0.8 mi Calm Calm - N/A   Unknown
10:15 PM 64.9 °F 63.1 °F 94% 29.78 in 0.8 mi Calm Calm - N/A   Mostly Cloudy
10:35 PM 62.6 °F 60.8 °F 94% 29.79 in 0.8 mi Calm Calm - N/A   Unknown
10:55 PM 62.6 °F 60.8 °F 94% 29.79 in 1.0 mi Calm Calm - N/A   Unknown
11:15 PM 62.6 °F 60.8 °F 94% 29.79 in 5.0 mi Calm Calm - N/A   Clear
11:35 PM 62.6 °F 60.8 °F 94% 29.79 in 0.8 mi Calm Calm - N/A   Unknown
11:55 PM 62.6 °F 60.8 °F 94% 29.79 in 2.5 mi Calm Calm - N/A   Clear